Weather History for Olean, NY

Change the Weather History Date:

Tuesday, February 19, 2013

  Actual Average (KBFD) Record (KBFD)
Temperature  
Mean Temperature 26 °F 24 °F  
Max Temperature 33 °F 33 °F 62 °F (1994)
Min Temperature 17 °F 15 °F -14 °F (1993)
Degree Days  
Heating Degree Days 39 35  
Month to date heating degree days 695  
Since 1 July heating degree days 5106  
Cooling Degree Days 0 0  
Month to date cooling degree days 0  
Year to date cooling degree days 0  
Moisture  
Dew Point 24 °F    
Average Humidity 83    
Maximum Humidity 100    
Minimum Humidity 55    
Precipitation  
Precipitation 0.00 in 0.08 in 1.04 in (1964)
Month to date precipitation 1.58  
Year to date precipitation 4.87  
Sea Level Pressure  
Sea Level Pressure 29.66 in    
Wind  
Wind Speed 8 mph (SSW)    
Max Wind Speed 14 mph    
Max Gust Speed 22 mph    
Visibility 5 miles    
Events Rain , Snow    
T = Trace of Precipitation, MM = Missing Value Source: NWS Daily Summary

Daily Weather History Graph

Daily Weather History Graph

Search for Another Location

Airport:

Trip Planner

Search our weather history database for the weather conditions in past years. The results will help you decide how hot, cold, wet, or windy it might be!

Date:

Astronomy

Feb. 19, 2013 Rise Set
Actual Time 7:03 AM EST 5:51 PM EST
Civil Twilight 6:35 AM EST 6:19 PM EST
Nautical Twilight 6:02 AM EST 6:52 PM EST
Astronomical Twilight 5:30 AM EST 7:25 PM EST
Moon 12:18 PM EST (2/19) 2:37 AM EST (2/19)
Length of Visible Light 11h 44m
Length of Day
10h 47m
Waxing Gibbous, 67% of the Moon is Illuminated
Feb 19
Waxing Gibbous
Feb 25
Full
Mar 4
Last Quarter
Mar 11
New
Mar 19
First Quarter

Hourly Weather History & Observations

Time (EST) Temp. Windchill Dew Point Humidity Pressure Visibility Wind Dir Wind Speed Gust Speed Precip Events Conditions
12:15 AM 32.0 °F 24.2 °F 19.4 °F 60% 29.86 in 10.0 mi South 9.2 mph - N/A   Mostly Cloudy
12:35 AM 32.0 °F 23.6 °F 19.4 °F 60% 29.86 in 10.0 mi South 10.4 mph - N/A   Overcast
12:55 AM 32.0 °F 23.0 °F 19.4 °F 60% 29.85 in 10.0 mi South 11.5 mph 17.3 mph N/A   Mostly Cloudy
1:15 AM 32.0 °F 24.2 °F 19.4 °F 60% 29.84 in 10.0 mi South 9.2 mph 16.1 mph N/A   Clear
1:35 AM 32.0 °F 24.8 °F 19.4 °F 60% 29.84 in 10.0 mi South 8.1 mph - N/A   Clear
1:55 AM 32.0 °F 24.8 °F 17.6 °F 55% 29.84 in 10.0 mi SSW 8.1 mph - N/A   Clear
2:15 AM 32.0 °F 24.2 °F 17.6 °F 55% 29.82 in 10.0 mi South 9.2 mph 16.1 mph N/A   Clear
2:35 AM 32.0 °F 23.0 °F 17.6 °F 55% 29.81 in 10.0 mi South 11.5 mph 18.4 mph N/A   Clear
2:55 AM 32.0 °F 24.8 °F 17.6 °F 55% 29.80 in 10.0 mi South 8.1 mph - N/A   Clear
3:15 AM 32.0 °F 23.6 °F 17.6 °F 55% 29.78 in 10.0 mi South 10.4 mph 17.3 mph N/A   Clear
3:35 AM 32.0 °F 25.6 °F 17.6 °F 55% 29.77 in 10.0 mi South 6.9 mph - N/A   Clear
3:55 AM 32.0 °F 25.6 °F 17.6 °F 55% 29.75 in 10.0 mi South 6.9 mph - N/A   Clear
4:15 AM 32.0 °F 25.6 °F 17.6 °F 55% 29.74 in 10.0 mi South 6.9 mph - N/A   Clear
4:35 AM 32.0 °F 24.8 °F 17.6 °F 55% 29.72 in 10.0 mi South 8.1 mph - N/A   Scattered Clouds
4:55 AM 32.0 °F 23.6 °F 17.6 °F 55% 29.72 in 10.0 mi South 10.4 mph - N/A   Scattered Clouds
5:15 AM 32.0 °F 24.8 °F 17.6 °F 55% 29.71 in 10.0 mi South 8.1 mph - N/A   Mostly Cloudy
5:35 AM 32.0 °F 26.4 °F 19.4 °F 60% 29.69 in 10.0 mi South 5.8 mph - N/A   Overcast
5:55 AM 32.0 °F 24.8 °F 19.4 °F 60% 29.69 in 10.0 mi South 8.1 mph - N/A   Overcast
6:15 AM 32.0 °F 22.1 °F 19.4 °F 60% 29.68 in 10.0 mi SSW 13.8 mph 18.4 mph N/A   Overcast
6:35 AM 32.0 °F 22.1 °F 23.0 °F 69% 29.68 in 3.0 mi South 13.8 mph 21.9 mph N/A Snow Light Snow
6:55 AM 30.2 °F 19.8 °F 28.4 °F 93% 29.67 in 1.0 mi South 13.8 mph 20.7 mph N/A Snow Snow
7:15 AM 30.2 °F 20.2 °F 30.2 °F 100% 29.67 in 1.8 mi South 12.7 mph 17.3 mph N/A Snow Light Snow
7:35 AM 30.2 °F 21.9 °F 30.2 °F 100% 29.67 in 0.2 mi SSW 9.2 mph 17.3 mph N/A Snow Snow
7:55 AM 30.2 °F 20.2 °F 30.2 °F 100% 29.66 in 0.8 mi South 12.7 mph 18.4 mph N/A Snow Light Snow
8:15 AM 32.0 °F 22.1 °F 32.0 °F 100% 29.64 in 0.8 mi South 13.8 mph 18.4 mph N/A Snow Light Snow
8:35 AM 32.0 °F 23.6 °F 32.0 °F 100% 29.64 in 1.0 mi SSW 10.4 mph - N/A Snow Light Snow
8:55 AM 32.0 °F 23.0 °F 32.0 °F 100% 29.62 in 1.5 mi South 11.5 mph 19.6 mph N/A Snow Light Snow
9:15 AM 32.0 °F 23.6 °F 32.0 °F 100% 29.62 in 2.0 mi SSW 10.4 mph 19.6 mph N/A Snow Light Snow
9:35 AM 32.0 °F 22.1 °F 32.0 °F 100% 29.61 in 2.5 mi South 13.8 mph 20.7 mph N/A Snow Light Snow
9:55 AM 32.0 °F 23.6 °F 32.0 °F 100% 29.60 in 3.0 mi South 10.4 mph 16.1 mph N/A Snow Light Snow
10:15 AM 32.0 °F 23.6 °F 32.0 °F 100% 29.59 in 1.5 mi SSW 10.4 mph 16.1 mph N/A Snow Light Snow
10:35 AM 32.0 °F 23.6 °F 32.0 °F 100% 29.59 in 2.5 mi South 10.4 mph - N/A Snow Light Snow
10:55 AM 32.0 °F 23.0 °F 32.0 °F 100% 29.59 in 1.8 mi SSW 11.5 mph 17.3 mph N/A Snow Light Snow
11:15 AM 32.0 °F 23.6 °F 32.0 °F 100% 29.58 in 3.0 mi South 10.4 mph 18.4 mph N/A   Overcast
11:35 AM 32.0 °F 23.6 °F 32.0 °F 100% 29.57 in 4.0 mi South 10.4 mph 17.3 mph N/A Snow Light Snow
11:55 AM 32.0 °F 24.2 °F 32.0 °F 100% 29.56 in 3.0 mi South 9.2 mph 16.1 mph N/A Rain Light Rain
12:15 PM 32.0 °F 24.8 °F 32.0 °F 100% 29.55 in 3.0 mi South 8.1 mph - N/A   Overcast
12:35 PM 32.0 °F 26.4 °F 32.0 °F 100% 29.54 in 2.5 mi South 5.8 mph - N/A   Overcast
12:55 PM 33.8 °F 27.7 °F 33.8 °F 100% 29.53 in 4.0 mi South 6.9 mph - N/A Rain Rain
1:15 PM 33.8 °F 27.7 °F 33.8 °F 100% 29.52 in 5.0 mi South 6.9 mph - N/A Rain Light Rain
1:35 PM 33.8 °F 27.7 °F 33.8 °F 100% 29.51 in 5.0 mi SSW 6.9 mph - N/A Rain Rain
1:55 PM 32.0 °F 27.5 °F 32.0 °F 100% 29.52 in 1.0 mi WSW 4.6 mph - N/A Snow Light Snow
2:15 PM 33.8 °F 29.6 °F 32.0 °F 93% 29.51 in 5.0 mi WSW 4.6 mph 17.3 mph N/A Snow Light Snow
2:35 PM 32.0 °F 23.6 °F 32.0 °F 100% 29.53 in 4.0 mi WNW 10.4 mph 16.1 mph N/A Snow Light Snow
2:55 PM 32.0 °F 25.6 °F 32.0 °F 100% 29.54 in 2.0 mi WNW 6.9 mph - N/A Snow Light Snow
3:15 PM 32.0 °F - 30.2 °F 93% 29.55 in 1.2 mi Calm Calm - N/A Snow Light Snow
3:35 PM 30.2 °F - 30.2 °F 100% 29.55 in 7.0 mi Calm Calm - N/A   Overcast
4:15 PM 28.4 °F - 26.6 °F 93% 29.58 in 4.0 mi Calm Calm - N/A   Overcast
4:35 PM 28.4 °F - 26.6 °F 93% 29.59 in 5.0 mi Calm Calm - N/A Snow Light Snow
4:55 PM 28.4 °F - 26.6 °F 93% 29.59 in 5.0 mi Calm Calm - N/A   Overcast
5:15 PM 28.4 °F - 24.8 °F 86% 29.60 in 5.0 mi Calm Calm - N/A Snow Light Snow
5:35 PM 26.6 °F - 23.0 °F 86% 29.61 in 4.0 mi Calm Calm - N/A Snow Light Snow
5:55 PM 26.6 °F - 21.2 °F 80% 29.62 in 5.0 mi Calm Calm - N/A Snow Light Snow
6:15 PM 26.6 °F - 21.2 °F 80% 29.64 in 5.0 mi Calm Calm - N/A Snow Light Snow
7:55 PM 23.0 °F - 19.4 °F 86% 29.66 in 4.0 mi Calm Calm - N/A Snow Light Snow
8:15 PM 23.0 °F - 19.4 °F 86% 29.66 in 1.8 mi Calm Calm - N/A Snow Light Snow
8:35 PM 23.0 °F - 19.4 °F 86% 29.67 in 1.2 mi Calm Calm - N/A Snow Light Snow
8:55 PM 21.2 °F - 17.6 °F 86% 29.67 in 2.0 mi Calm Calm - N/A Snow Light Snow
9:15 PM 19.4 °F - 17.6 °F 93% 29.67 in 1.5 mi Calm Calm - N/A Snow Light Snow
9:35 PM 19.4 °F - 15.8 °F 86% 29.68 in 1.8 mi Calm Calm - N/A Snow Light Snow
9:55 PM 19.4 °F - 15.8 °F 86% 29.68 in 1.2 mi Calm Calm - N/A Snow Light Snow
10:15 PM 19.4 °F - 17.6 °F 93% 29.68 in 1.2 mi Calm Calm - N/A Snow Light Snow
10:35 PM 19.4 °F - 14.0 °F 80% 29.68 in 2.5 mi Calm Calm - N/A Snow Light Snow
10:55 PM 19.4 °F - 14.0 °F 80% 29.68 in 7.0 mi Calm Calm - N/A Snow Light Snow
11:15 PM 19.4 °F - 12.2 °F 74% 29.68 in 7.0 mi Calm Calm - N/A Snow Light Snow
11:35 PM 19.4 °F - 12.2 °F 74% 29.69 in 10.0 mi Calm Calm - N/A Snow Light Snow
11:55 PM 17.6 °F - 12.2 °F 79% 29.69 in 7.0 mi Calm Calm - N/A Snow Light Snow